Погода в Тауйске

Россия / Магаданская область     59°43′28″N   149°19′41″E
темп.,
°C
ветер,
м/с
пор.,
м/с
влажн.,
%
обл.,
%
осадки,
мм/ч
давл.,
гПа
погр.,
м
13 апреля, вт
вт1323:00−12ссв229099 0.3 101817
02:00−14с2289100 0.0 101813
05:00−17с228790 0.0 101911
08:00−16ссз22755 0.0 102081
11:00−12сз225671 0.0 1020413
14:00−10ссв11416 0.0 1019638
17:00−8ююв216418 0.0 1019529
20:00−14ююв118433 0.0 101910
14 апреля, ср
ср1423:00−18с228929 0.0 101910
02:00−19ссз229088 0.0 101812
05:00−19ссз2286100 0.0 101719
08:00−13сз2374100 0.0 1015106
11:00−8с2362100 0.0 1012413
14:00−4всв4753100 0.0 10071003
17:00−4всв81376100 0.0 10041138
20:00−6всв61192100 0.8 1002534
15 апреля, чт
чт1523:00−6в51095100 2.3 1002486
02:00−6в61194100 2.2 1001481
05:00−7в71394100 3.6 1002500
08:00−6в5990100 0.4 1003389
11:00−5в61291100 2.8 1003777
14:00−3в61293100 2.1 10021014
17:00−3ююв71085100 5.3 10041140
20:00−5в599599 0.6 1006355
16 апреля, пт
пт1623:00−5св3596100 2.3 1008190
02:00−9ссв119164 0.3 101110
05:00−14ссз229212 0.3 101510
08:00−11сз22855 0.0 101765
11:00−5зсз228012 0.0 1018277
14:00−3з238672 0.0 1019492
17:00−2зсз237936 0.0 1019569
20:00−7зсз22875 0.0 102010
17 апреля, сб
сб1723:00−14ссз22955 0.0 102110
02:00−15ссз339431 0.0 102117
05:00−17ссз229431 0.0 102110
08:00
11:00−5зсз338320 0.0 1020308
14:00−3зюз228980 0.0 1020395
17:00−2з118297 0.0 1020407
20:00−6юв118984 0.0 102010